Tracking 18852 objects as of 23-Nov-2017
HD Live streaming from Space Station
objects crossing your sky now

FENGYUN 1C DEB

Track FENGYUN 1C DEB now!
10-day predictions


NORAD ID: 30172
Int'l Code: 1999-025UD
Perigee: 840.1 km
Apogee: 965.2 km
Inclination: 99.0 °
Period: 102.9 minutes
Semi major axis: 7273 km
RCS: 0.0441 m2 (small)
Launch date: May 10, 1999
Source: People's Republic of China (PRC)
Launch site: Taiyaun Space Center, China (TSC)

Note: This is SATELLITE DEBRIS
aabbcc
Your satellite tracking list
Your tracking list is empty




NASA's NSSDC Master Catalog

Two Line Element Set (TLE):
1 30172U 99025UD  17326.78667699  .00000806  00000-0  56422-3 0  9991
2 30172  99.0447 254.2400 0086042  50.1988   3.2250 13.99502196552780
Source of the keplerian elements: AFSPC